Back to catalog

STARLINK-38178

AliveCommunicationsSSO
NORAD 100201·PAYLOAD·🇺🇸 United States

Launched Aug 1, 2026 from Vandenberg Space Force Base

Loading…

Next Passes (next 24 hours)

TLE

FreshSource: Space-Track

Epoch: Sep 14, 2026, 12:26 UTC

1 A0201U 26175Y   26257.51819824  .00231828  00000-0  15046-2 0  9996
2 A0201  97.2816  99.6441 0002076 119.1719 240.9755 15.75322992  8235

Track STARLINK-38178 in real time with AllMySat

Download on the App Store